Meteo pe oră la Morpeth

Astăzi, 24 Noiembrie, Marţi

Timp Temperatura Precipitaţii Vânt Presiune Umiditate
00:00 +11°C° 0 mm 7 m/s 753 mmHg 85%
01:00 +11°C° 0.2 mm 7 m/s 753 mmHg 85%
02:00 +11°C° 0.2 mm 7 m/s 752 mmHg 85%
03:00 +11°C° 0.2 mm 7 m/s 752 mmHg 85%
04:00 +11°C° 0.1 mm 8 m/s 752 mmHg 85%
05:00 +11°C° 0.1 mm 8 m/s 752 mmHg 84%
06:00 +11°C° 0 mm 7 m/s 752 mmHg 84%
07:00 +11°C° 0 mm 7 m/s 751 mmHg 83%
08:00 +11°C° 0 mm 7 m/s 751 mmHg 83%
09:00 +10°C° 0 mm 7 m/s 751 mmHg 82%
10:00 +11°C° 0.1 mm 7 m/s 751 mmHg 81%
11:00 +11°C° 0.1 mm 8 m/s 750 mmHg 81%
12:00 +11°C° 0 mm 7 m/s 750 mmHg 79%
13:00 +11°C° 0 mm 7 m/s 750 mmHg 78%
14:00 +11°C° 0 mm 8 m/s 749 mmHg 77%
15:00 +10°C° 0 mm 8 m/s 748 mmHg 75%
16:00 +10°C° 0 mm 8 m/s 748 mmHg 76%
17:00 +9°C° 0 mm 7 m/s 748 mmHg 77%
18:00 +9°C° 0 mm 7 m/s 747 mmHg 78%
19:00 +9°C° 0 mm 7 m/s 747 mmHg 80%
20:00 +9°C° 0 mm 7 m/s 747 mmHg 82%
21:00 +9°C° 0 mm 7 m/s 747 mmHg 84%
22:00 +9°C° 0 mm 6 m/s 747 mmHg 85%
23:00 +9°C° 0 mm 6 m/s 747 mmHg 85%

Mâine, 25 Noiembrie, Miercuri

Timp Temperatura Precipitaţii Vânt Presiune Umiditate
00:00 +9°C° 0 mm 6 m/s 747 mmHg 86%
01:00 +9°C° 0.4 mm 5 m/s 748 mmHg 87%
02:00 +8°C° 0.4 mm 4 m/s 748 mmHg 88%
03:00 +8°C° 0.4 mm 3 m/s 748 mmHg 89%
04:00 +8°C° 0.1 mm 3 m/s 748 mmHg 87%
05:00 +8°C° 0.1 mm 3 m/s 749 mmHg 84%
06:00 +7°C° 0.1 mm 3 m/s 749 mmHg 82%
07:00 +7°C° 0 mm 3 m/s 750 mmHg 83%
08:00 +7°C° 0 mm 3 m/s 750 mmHg 84%
09:00 +5°C° 0 mm 3 m/s 751 mmHg 85%
10:00 +6°C° 0 mm 4 m/s 751 mmHg 82%
11:00 +6°C° 0 mm 4 m/s 752 mmHg 80%
12:00 +7°C° 0 mm 4 m/s 752 mmHg 77%
13:00 +7°C° 0 mm 4 m/s 752 mmHg 79%
14:00 +6°C° 0 mm 4 m/s 752 mmHg 81%
15:00 +7°C° 0 mm 3 m/s 753 mmHg 83%
16:00 +5°C° 0 mm 3 m/s 753 mmHg 85%
17:00 +5°C° 0 mm 4 m/s 753 mmHg 87%
18:00 +4°C° 0 mm 4 m/s 754 mmHg 89%
19:00 +4°C° 0 mm 4 m/s 754 mmHg 89%
20:00 +4°C° 0 mm 4 m/s 755 mmHg 89%
21:00 +4°C° 0 mm 4 m/s 755 mmHg 89%
22:00 +4°C° 0 mm 4 m/s 756 mmHg 90%
23:00 +4°C° 0 mm 4 m/s 756 mmHg 91%

Poimâine, 26 Noiembrie, Joi

Timp Temperatura Precipitaţii Vânt Presiune Umiditate
00:00 +4°C° 0 mm 4 m/s 756 mmHg 91%
01:00 +4°C° 0 mm 3 m/s 757 mmHg 91%
02:00 +3°C° 0 mm 3 m/s 757 mmHg 91%
03:00 +3°C° 0 mm 3 m/s 757 mmHg 92%
04:00 +3°C° 0 mm 3 m/s 757 mmHg 91%
05:00 +3°C° 0 mm 3 m/s 758 mmHg 91%
06:00 +3°C° 0 mm 3 m/s 758 mmHg 91%
07:00 +3°C° 0 mm 3 m/s 758 mmHg 91%
08:00 +3°C° 0 mm 3 m/s 758 mmHg 90%
09:00 +3°C° 0 mm 3 m/s 759 mmHg 90%
10:00 +4°C° 0 mm 3 m/s 759 mmHg 88%
11:00 +5°C° 0 mm 3 m/s 759 mmHg 85%
12:00 +7°C° 0 mm 3 m/s 759 mmHg 83%
13:00 +5°C° 0 mm 3 m/s 759 mmHg 84%
14:00 +6°C° 0 mm 2 m/s 759 mmHg 86%
15:00 +6°C° 0 mm 2 m/s 759 mmHg 88%
16:00 +5°C° 0 mm 2 m/s 759 mmHg 88%
17:00 +5°C° 0 mm 2 m/s 759 mmHg 89%
18:00 +5°C° 0 mm 1 m/s 759 mmHg 89%
19:00 +4°C° 0 mm 2 m/s 759 mmHg 89%
20:00 +3°C° 0 mm 2 m/s 760 mmHg 89%
21:00 +3°C° 0 mm 2 m/s 760 mmHg 89%
22:00 +3°C° 0 mm 2 m/s 760 mmHg 89%
23:00 +2°C° 0 mm 3 m/s 760 mmHg 89%

27 Noiembrie, Vineri

Timp Temperatura Precipitaţii Vânt Presiune Umiditate
00:00 +2°C° 0 mm 3 m/s 760 mmHg 89%
01:00 +2°C° 0 mm 3 m/s 760 mmHg 88%
02:00 +3°C° 0 mm 2 m/s 760 mmHg 87%
03:00 +2°C° 0 mm 2 m/s 760 mmHg 86%
04:00 +3°C° 0 mm 2 m/s 760 mmHg 85%
05:00 +3°C° 0 mm 2 m/s 760 mmHg 85%
06:00 +3°C° 0 mm 2 m/s 760 mmHg 84%
07:00 +3°C° 0 mm 2 m/s 760 mmHg 84%
08:00 +4°C° 0 mm 2 m/s 760 mmHg 83%
09:00 +4°C° 0 mm 2 m/s 760 mmHg 83%
10:00 +6°C° 0 mm 1 m/s 760 mmHg 80%
11:00 +6°C° 0 mm 1 m/s 760 mmHg 78%
12:00 +7°C° 0 mm 1 m/s 760 mmHg 75%
13:00 +7°C° 0 mm 1 m/s 760 mmHg 76%
14:00 +6°C° 0 mm 1 m/s 759 mmHg 77%
15:00 +5°C° 0 mm 0 m/s 759 mmHg 78%
16:00 +4°C° 0 mm 0 m/s 759 mmHg 78%
17:00 +4°C° 0 mm 0 m/s 759 mmHg 79%
18:00 +3°C° 0 mm 0 m/s 759 mmHg 79%
19:00 +3°C° 0 mm 0 m/s 759 mmHg 79%
20:00 +4°C° 0 mm 1 m/s 759 mmHg 79%
21:00 +4°C° 0 mm 1 m/s 759 mmHg 78%
22:00 +4°C° 0 mm 1 m/s 759 mmHg 79%
23:00 +4°C° 0 mm 1 m/s 759 mmHg 79%

28 Noiembrie, Sâmbătă

Timp Temperatura Precipitaţii Vânt Presiune Umiditate
00:00 +3°C° 0 mm 1 m/s 759 mmHg 79%
01:00 +3°C° 0 mm 1 m/s 759 mmHg 80%
02:00 +3°C° 0 mm 1 m/s 758 mmHg 82%
03:00 +3°C° 0 mm 1 m/s 758 mmHg 83%
04:00 +3°C° 0.2 mm 1 m/s 758 mmHg 84%
05:00 +3°C° 0.2 mm 1 m/s 758 mmHg 85%
06:00 +2°C° 0.2 mm 2 m/s 758 mmHg 86%
07:00 +3°C° 0.2 mm 1 m/s 758 mmHg 87%
08:00 +3°C° 0.2 mm 1 m/s 757 mmHg 87%
09:00 +4°C° 0.2 mm 1 m/s 757 mmHg 87%
10:00 +4°C° 0 mm 1 m/s 757 mmHg 84%
11:00 +5°C° 0 mm 1 m/s 757 mmHg 81%
12:00 +6°C° 0 mm 1 m/s 757 mmHg 78%
13:00 +6°C° 0 mm 1 m/s 757 mmHg 80%
14:00 +5°C° 0 mm 1 m/s 757 mmHg 83%
15:00 +5°C° 0 mm 1 m/s 757 mmHg 86%
16:00 +4°C° 0 mm 1 m/s 758 mmHg 87%
17:00 +4°C° 0 mm 1 m/s 758 mmHg 88%
18:00 +3°C° 0 mm 1 m/s 758 mmHg 88%
19:00 +3°C° 0 mm 1 m/s 759 mmHg 89%
20:00 +3°C° 0 mm 1 m/s 759 mmHg 89%
21:00 +3°C° 0 mm 1 m/s 759 mmHg 89%
22:00 +3°C° 0 mm 1 m/s 759 mmHg 89%
23:00 +3°C° 0 mm 1 m/s 760 mmHg 89%

29 Noiembrie, Duminică

Timp Temperatura Precipitaţii Vânt Presiune Umiditate
00:00 +3°C° 0 mm 1 m/s 760 mmHg 89%
01:00 +3°C° 0 mm 1 m/s 760 mmHg 89%
02:00 +3°C° 0 mm 1 m/s 760 mmHg 88%
03:00 +3°C° 0 mm 1 m/s 760 mmHg 88%
04:00 +3°C° 0 mm 1 m/s 760 mmHg 88%
05:00 +3°C° 0 mm 1 m/s 760 mmHg 89%
06:00 +3°C° 0 mm 1 m/s 761 mmHg 89%
07:00 +3°C° 0 mm 1 m/s 761 mmHg 89%
08:00 +3°C° 0 mm 1 m/s 761 mmHg 90%
09:00 +3°C° 0 mm 1 m/s 761 mmHg 91%
10:00 +4°C° 0 mm 1 m/s 761 mmHg 88%
11:00 +5°C° 0 mm 1 m/s 761 mmHg 86%
12:00 +6°C° 0 mm 1 m/s 762 mmHg 83%
13:00 +6°C° 0 mm 1 m/s 762 mmHg 85%
14:00 +5°C° 0 mm 1 m/s 762 mmHg 87%
15:00 +4°C° 0 mm 1 m/s 762 mmHg 89%
16:00 +4°C° 0 mm 1 m/s 762 mmHg 89%
17:00 +3°C° 0 mm 1 m/s 762 mmHg 89%
18:00 +3°C° 0 mm 1 m/s 762 mmHg 89%
19:00 +3°C° 0 mm 1 m/s 762 mmHg 89%
20:00 +2°C° 0 mm 2 m/s 763 mmHg 89%
21:00 +2°C° 0 mm 2 m/s 763 mmHg 88%
22:00 +2°C° 0 mm 2 m/s 763 mmHg 88%
23:00 +1°C° 0 mm 2 m/s 763 mmHg 87%
Arată mai mult

Formular de consimțământ

Meteoprog și furnizorii noștri de servicii pot stoca și accesa date personale, precum cookies, identificatori de dispozitiv sau alte tehnologii similare pe dispozitivul dumneavoastră și procesa astfel de date pentru a personaliza conținutul și reclamele, dar și pentru a oferi caracteristici de social media și pentru a analiza traficul.

  • Stocarea și/sau accesarea informațiilor pe dispozitivul dumneavoastră

    Cookies, identificatori de dispozitiv sau alte informații pot fi stocate sau accesate pe dispozitiv în scopurile indicate mai sus.

  • Reclame și conținut personalizat, evaluarea reclamelor și a conținutului, informații despre audiențe și dezvoltarea produselor

    Reclamele și conținutul pot fi personalizate pe baza unui profil. Pot fi adăugate date suplimentare pentru a personaliza mai bine reclamele și conținutul. Performanța reclamelor și conținutului poate fi măsurată. Pot fi obținute informații despre utilizatorii care au văzut reclamele și conținutul. Aceste date pot fi utilizate pentru a dezvolta sau îmbunătăți experiența utilizatorilor, sistemele și software-ul.

Dând clic pe ‘Sunt de acord’, permiteți utilizarea cookie-urilor menționate, a identificatorilor de dispozitiv, balizelor web sau altor tehnologii similare. Setările pot fi modificate din browser-ul dispozitivului dumneavoastră.

În anumite scopuri, interesele legitime pot prima asupra consimțământului. Puteți citi mai multe informații în acest sens în Politica privind Confidențialitatea Datelor și Cookie.